[[{"header":{"parameterUnit":"m.s-1","parameterCategory":2,"la1":30.2991,"la2":30.254,"lo1":-89.0895,"lo2":-89.0444,"dy":0.0017,"dx":0.0017,"nx":28,"ny":28,"refTime":"2024-04-02T09:00:00:Z","depth":"0","parameterNumber":2,"parameterNumberName":"U-component_of_CURRENTS"},"data":[0,0,0,0,0,0,0,0,0,0,0,0,0,0,0,0,0,0,0,0,0,0,0,0,0,0,0,0,0,0,0,0,0,0,0,0,0,0,0,0,0,0,0,0,0,0,0,0,0,0,0,0,0,0,0,0,0,0,-0.2629,-0.263,0,-0.2654,-0.2654,-0.2654,-0.2621,-0.262,-0.2619,-0.2618,-0.2574,-0.2574,-0.2574,0,0,0,0,0,0,0,0,0,0,0,0,0,-0.256,-0.2561,-0.2629,-0.263,-0.2631,-0.2654,-0.2654,-0.2654,-0.2621,-0.262,-0.2619,-0.2618,-0.2574,-0.2574,-0.2574,0,0,0,0,0,0,0,0,0,0,0,0,0,-0.2585,-0.2561,-0.2629,-0.2619,-0.2618,-0.2654,-0.2654,-0.2654,-0.2621,-0.262,-0.2618,-0.2617,-0.2574,-0.2574,-0.2574,-0.2599,0,0,-0.2572,-0.2572,0,0,0,0,0,0,0,0,-0.2584,-0.2587,-0.262,-0.262,-0.2619,-0.2635,-0.2613,-0.2633,-0.2622,-0.2617,-0.2618,-0.2616,-0.2591,-0.2589,-0.2594,-0.2597,-0.2595,-0.2572,-0.2572,-0.2572,-0.2572,0,0,0,0,0,0,0,-0.2582,-0.2586,-0.2636,-0.2621,-0.262,-0.2615,-0.2616,-0.2617,-0.2609,-0.2618,-0.2616,-0.2623,-0.259,-0.2595,-0.2593,-0.2595,-0.2572,-0.2572,-0.2572,-0.2572,-0.2596,-0.2597,0,0,0,0,0,0,-0.2586,-0.2585,-0.2636,-0.2637,-0.26,-0.2617,-0.2619,-0.2629,-0.261,-0.2607,-0.2624,-0.2622,-0.2596,-0.2593,-0.2591,-0.2608,-0.2572,-0.2571,-0.2571,-0.2595,-0.2596,-0.2597,0,0,0,0,0,0,-0.2584,-0.259,-0.2635,-0.2613,-0.2619,-0.262,-0.2632,-0.2631,-0.263,-0.2616,-0.2611,-0.2624,-0.2595,-0.2592,-0.2588,-0.2606,-0.2571,-0.2571,-0.2594,-0.2596,-0.2597,-0.265,0,0,0,0,0,0,-0.2582,-0.259,-0.2594,-0.2614,-0.262,-0.2655,-0.2633,-0.2632,-0.2638,-0.2634,-0.2615,-0.261,-0.2594,-0.2589,-0.2588,-0.2605,-0.2571,-0.2593,-0.2595,-0.2596,-0.2647,-0.2653,-0.2658,0,0,0,0,0,-0.258,-0.2592,-0.2594,-0.26,-0.2628,-0.2656,-0.2658,-0.2652,-0.2639,-0.2645,-0.263,-0.261,-0.2599,-0.259,-0.2588,-0.2605,-0.2592,-0.2594,-0.2596,-0.2644,-0.2652,-0.2658,0,0,0,0,0,0,-0.2558,-0.2591,-0.2593,-0.2613,-0.2633,-0.2651,-0.2655,-0.2657,-0.2652,-0.2642,-0.2622,-0.2617,-0.2622,-0.2608,-0.2599,-0.2618,-0.2593,-0.2595,-0.263,-0.2636,-0.2642,-0.2631,-0.257,0,0,0,0,0,-0.256,-0.2576,-0.2607,-0.2619,-0.2632,-0.2645,-0.2654,-0.2656,-0.2659,-0.2655,-0.2644,-0.2633,-0.2633,-0.2628,-0.2624,-0.2636,-0.2604,-0.2646,-0.2652,-0.2656,-0.2647,-0.2621,-0.2623,-0.2604,-0.2604,-0.2604,0,0,-0.2552,-0.2573,-0.258,-0.2616,-0.2628,-0.2657,-0.2645,-0.2664,-0.2682,-0.2652,-0.266,-0.2652,-0.2641,-0.2652,-0.2653,-0.264,-0.2646,-0.2659,-0.2663,-0.2651,-0.2624,-0.2625,-0.2627,-0.2606,-0.2605,-0.2605,0,0,-0.2551,-0.2568,-0.2585,-0.2611,-0.2642,-0.2658,-0.2666,-0.2689,-0.269,-0.2708,-0.269,-0.2688,-0.2691,-0.2685,-0.2683,-0.2717,-0.2676,-0.2722,-0.274,-0.2716,-0.2717,-0.2717,-0.2679,-0.2675,-0.2723,-0.2724,-0.2724,0,-0.254,-0.2569,-0.2592,-0.2623,-0.2645,-0.2662,-0.269,-0.2705,-0.2721,-0.2724,-0.2712,-0.2714,-0.2705,-0.2717,-0.2729,-0.2729,-0.2701,-0.2717,-0.2722,-0.2721,-0.2721,-0.2681,-0.2677,-0.2726,-0.2726,-0.2726,-0.2725,0,-0.2557,-0.2586,-0.2599,-0.2645,-0.2674,-0.2699,-0.2735,-0.2751,-0.2755,-0.2765,-0.2772,-0.2761,-0.2756,-0.2765,-0.2757,-0.276,-0.2737,-0.2732,-0.2703,-0.2726,-0.2683,-0.2677,-0.273,-0.2729,-0.2728,-0.2728,0,0,-0.2511,-0.2595,-0.2597,-0.2626,-0.2688,-0.271,-0.2751,-0.2786,-0.2798,-0.2808,-0.2815,-0.2823,-0.2807,-0.2803,-0.2794,-0.2778,-0.2758,-0.2756,-0.2754,-0.2714,-0.2691,-0.2596,-0.258,-0.2754,-0.2753,-0.2753,-0.2662,0,-0.2511,-0.2573,-0.2615,-0.2665,-0.2702,-0.2743,-0.278,-0.2814,-0.2829,-0.284,-0.2834,-0.2836,-0.2826,-0.282,-0.2806,-0.2776,-0.2745,-0.2782,-0.2678,-0.2674,-0.2583,-0.2571,-0.2473,-0.2377,-0.2656,-0.2655,-0.2655,0,-0.2508,-0.2553,-0.2607,-0.2685,-0.2702,-0.2732,-0.2781,-0.2815,-0.2847,-0.2858,-0.286,-0.2854,-0.2845,-0.2826,-0.2769,-0.2793,-0.2739,-0.2707,-0.2703,-0.2587,-0.2567,-0.2399,-0.2356,-0.2345,-0.2645,-0.2646,-0.2647,0,-0.2458,-0.2542,-0.2581,-0.2609,-0.27,-0.272,-0.2757,-0.2808,-0.2827,-0.2857,-0.2861,-0.2859,-0.2838,-0.2795,-0.2729,-0.275,-0.2644,-0.2665,-0.2522,-0.2515,-0.2394,-0.2377,-0.2319,-0.2598,-0.2598,-0.2598,-0.2599,0,-0.2442,-0.2467,-0.2557,-0.2577,-0.2609,-0.2688,-0.2714,-0.2753,-0.2801,-0.2814,-0.285,-0.2835,-0.2826,-0.2771,-0.2721,-0.2588,-0.2631,-0.2506,-0.2479,-0.241,-0.2395,-0.235,-0.238,-0.2595,-0.2596,-0.2596,-0.2597,0,-0.2372,-0.2439,-0.248,-0.2566,-0.2587,-0.2602,-0.2675,-0.27,-0.2754,-0.2768,-0.2776,-0.2801,-0.273,-0.269,-0.2606,-0.255,-0.2404,-0.239,-0.23,-0.2264,-0.2131,-0.2168,-0.206,-0.2003,-0.2232,-0.2229,-0.2226,0,-0.234,-0.2356,-0.2436,-0.2454,-0.2485,-0.2528,-0.2563,-0.265,-0.2684,-0.2729,-0.2728,-0.2683,-0.2619,-0.2465,-0.2361,-0.2234,-0.2253,-0.2082,-0.2103,-0.2087,-0.2111,-0.2149,-0.2113,-0.197,-0.1965,-0.1962,-0.1959,0,-0.2254,-0.228,-0.2309,-0.2351,-0.2387,-0.2422,-0.248,-0.2494,-0.2592,-0.2593,-0.2562,-0.251,-0.2396,-0.2221,-0.2078,-0.2,-0.2041,-0.2002,-0.2012,-0.1909,-0.192,-0.1863,-0.2071,-0.1927,-0.193,-0.1932,-0.1934,-0.1935,-0.2159,-0.2158,-0.2196,-0.2213,-0.2259,-0.2269,-0.2242,-0.232,-0.2306,-0.2277,-0.233,-0.2203,-0.213,-0.1903,-0.1832,-0.1693,-0.1767,-0.1655,-0.1702,-0.1743,-0.1679,-0.1802,-0.1615,-0.1616,-0.1617,-0.1618,-0.1619,0,-0.2028,-0.204,-0.206,-0.2069,-0.2049,-0.2121,-0.2148,-0.2092,-0.2019,-0.2034,-0.1963,-0.1821,-0.1678,-0.1639,-0.1515,-0.1436,-0.1428,-0.1412,-0.1466,-0.1444,-0.1558,-0.1537,-0.1292,-0.1292,-0.1292,-0.1292,-0.1292,-0.1292,-0.196,-0.1923,-0.1931,-0.1834,-0.1841,-0.1752,-0.1721,-0.1667,-0.1639,-0.1483,-0.1415,-0.1388,-0.1403,-0.1504,-0.1416,-0.1345,-0.1344,-0.1281,-0.1325,-0.1447,-0.1475,-0.1502,-0.1489,-0.1238,-0.1238,-0.1156,-0.1155,-0.1155]},{"header":{"parameterUnit":"m.s-1","parameterCategory":2,"la1":30.2991,"la2":30.254,"lo1":-89.0895,"lo2":-89.0444,"dy":0.0017,"dx":0.0017,"nx":28,"ny":28,"refTime":"2024-04-02T09:00:00:Z","depth":"0","parameterNumber":3,"parameterNumberName":"V-component_of_CURRENTS"},"data":[0,0,0,0,0,0,0,0,0,0,0,0,0,0,0,0,0,0,0,0,0,0,0,0,0,0,0,0,0,0,0,0,0,0,0,0,0,0,0,0,0,0,0,0,0,0,0,0,0,0,0,0,0,0,0,0,0,0,-0.0221,-0.022,0,-0.0139,-0.0138,-0.0137,-0.0075,-0.0075,-0.0074,-0.0074,0.0051,0.0054,0.0057,0,0,0,0,0,0,0,0,0,0,0,0,0,-0.0271,-0.0271,-0.0221,-0.022,-0.0219,-0.0139,-0.0138,-0.0137,-0.0075,-0.0075,-0.0074,-0.0073,0.005,0.0054,0.0057,0,0,0,0,0,0,0,0,0,0,0,0,0,-0.0225,-0.0271,-0.0221,-0.0179,-0.0175,-0.0139,-0.0138,-0.0136,-0.0075,-0.0075,-0.0074,-0.0073,0.0049,0.0053,0.0058,0.007,0,0,0.0071,0.0073,0,0,0,0,0,0,0,0,-0.0227,-0.0223,-0.0186,-0.0182,-0.0177,-0.0117,-0.011,-0.0065,-0.0075,-0.0112,-0.0074,-0.0073,-0.0002,0.0006,0.0021,0.0076,0.0081,0.0071,0.0074,0.0076,0.0077,0,0,0,0,0,0,0,-0.0231,-0.0226,-0.0187,-0.0185,-0.018,-0.0147,-0.014,-0.0101,-0.0061,-0.0109,-0.0104,-0.0097,0.0001,0.0016,0.0024,0.0083,0.0071,0.0075,0.0078,0.0079,0.0171,0.0171,0,0,0,0,0,0,-0.0246,-0.0229,-0.019,-0.0185,-0.0202,-0.0147,-0.0139,-0.0136,-0.0062,-0.005,-0.0098,-0.0094,0.0009,0.0019,0.0029,0.006,0.0076,0.008,0.0082,0.0171,0.0171,0.0171,0,0,0,0,0,0,-0.0248,-0.0244,-0.0193,-0.0205,-0.0197,-0.0147,-0.0145,-0.0135,-0.0119,-0.0054,-0.0041,-0.0091,0.001,0.0023,0.0066,0.0065,0.0082,0.0086,0.0172,0.0171,0.0171,0.0115,0,0,0,0,0,0,-0.025,-0.0245,-0.0251,-0.0207,-0.0197,-0.018,-0.0145,-0.0134,-0.0116,-0.011,-0.0044,-0.0032,0.0011,0.0059,0.007,0.0072,0.0089,0.0172,0.0172,0.0171,0.0117,0.0113,0.011,0,0,0,0,0,-0.0252,-0.0266,-0.0252,-0.0247,-0.0206,-0.018,-0.0173,-0.0133,-0.0116,-0.0115,-0.0064,-0.0034,0.0065,0.0063,0.0076,0.0078,0.0172,0.0172,0.0171,0.0119,0.0114,0.011,0,0,0,0,0,0,-0.0292,-0.026,-0.0243,-0.0247,-0.0219,-0.0171,-0.0168,-0.014,-0.01,-0.0095,-0.0032,-0.0016,0.002,0.0054,0.005,0.0103,0.0122,0.0124,0.0078,0.0074,0.007,0.0057,0.0093,0,0,0,0,0,-0.0305,-0.0307,-0.0267,-0.0271,-0.0261,-0.0216,-0.0201,-0.0176,-0.0134,-0.0116,-0.0068,-0.0018,0.0027,0.0054,0.0095,0.0126,0.0172,0.0134,0.013,0.0127,0.0125,0.0197,0.02,0.017,0.017,0.017,0,0,-0.0322,-0.0305,-0.0305,-0.028,-0.0255,-0.0248,-0.0205,-0.0191,-0.0178,-0.0109,-0.0079,-0.0031,0.0031,0.0067,0.0086,0.0098,0.0158,0.0127,0.0123,0.0123,0.0197,0.02,0.0203,0.017,0.017,0.017,0,0,-0.0361,-0.0342,-0.0357,-0.0337,-0.0308,-0.0278,-0.0277,-0.0232,-0.0205,-0.0173,-0.0118,-0.0068,-0.0008,0.0045,0.0078,0.0077,0.0133,0.0083,0.006,0.013,0.0133,0.0136,0.0193,0.0202,0.0085,0.0085,0.0085,0,-0.0383,-0.0395,-0.0357,-0.0364,-0.0352,-0.0296,-0.0305,-0.027,-0.0215,-0.0188,-0.0174,-0.0064,-0.0016,0.0049,0.0045,0.0069,0.0112,0.0072,0.0125,0.0129,0.0134,0.0192,0.0202,0.0082,0.0082,0.0083,0.0083,0,-0.0428,-0.0437,-0.0444,-0.0432,-0.0411,-0.0412,-0.0358,-0.0333,-0.0295,-0.025,-0.0185,-0.0111,-0.0044,-0.0022,0.0011,0.0066,0.0087,0.0109,0.0136,0.0134,0.0194,0.0206,0.0078,0.0079,0.008,0.0081,0,0,-0.0484,-0.0479,-0.0483,-0.049,-0.0449,-0.044,-0.0411,-0.0366,-0.0339,-0.0276,-0.0232,-0.0151,-0.0103,-0.0064,-0.0005,0.0055,0.0118,0.0086,0.0091,0.0139,0.0265,0.0309,0.0327,0.015,0.0152,0.0154,0.0293,0,-0.0533,-0.0572,-0.0544,-0.0567,-0.0578,-0.0514,-0.0489,-0.0433,-0.0374,-0.0316,-0.022,-0.016,-0.012,-0.0085,-0.002,0.009,0.0148,0.0078,0.0262,0.0268,0.0306,0.0342,0.0383,0.0513,0.0305,0.0308,0.0309,0,-0.0587,-0.0605,-0.0643,-0.0633,-0.0629,-0.0624,-0.0565,-0.0536,-0.0431,-0.0382,-0.0296,-0.0215,-0.0109,-0.0084,0.0103,0.0056,0.0145,0.0228,0.0236,0.0305,0.0335,0.0484,0.0544,0.068,0.0328,0.0327,0.0325,0,-0.0651,-0.0673,-0.0708,-0.0706,-0.0679,-0.0672,-0.0647,-0.0556,-0.0519,-0.0417,-0.0375,-0.0236,-0.0153,-0.0024,0.0145,0.0126,0.0351,0.0352,0.0476,0.048,0.0566,0.0574,0.078,0.0471,0.0471,0.047,0.047,0,-0.0717,-0.0745,-0.0745,-0.0764,-0.0789,-0.0736,-0.0726,-0.0677,-0.0584,-0.0526,-0.0418,-0.033,-0.0134,0.0022,0.0148,0.0363,0.0361,0.0485,0.0528,0.0546,0.0551,0.0714,0.0754,0.0476,0.0474,0.0473,0.0472,0,-0.0782,-0.0786,-0.0828,-0.0824,-0.0824,-0.0838,-0.0794,-0.0774,-0.0683,-0.0603,-0.0569,-0.0376,-0.0162,0.0033,0.0278,0.0385,0.0666,0.0638,0.0641,0.0682,0.0905,0.0938,0.1162,0.1255,0.0797,0.0799,0.0801,0,-0.0821,-0.0851,-0.0885,-0.0914,-0.0919,-0.0925,-0.092,-0.0837,-0.0795,-0.0616,-0.0574,-0.0349,-0.0156,0.0211,0.0446,0.0697,0.0781,0.0859,0.0829,0.0943,0.1012,0.1016,0.1078,0.0922,0.0924,0.0926,0.0928,0,-0.0887,-0.0898,-0.0936,-0.0998,-0.102,-0.1034,-0.101,-0.0984,-0.0853,-0.0744,-0.0539,-0.0363,0.0007,0.0352,0.0664,0.0797,0.0964,0.0908,0.1045,0.1145,0.1149,0.125,0.0789,0.0947,0.0945,0.0943,0.0942,0.0942,-0.0928,-0.0977,-0.1026,-0.1079,-0.1109,-0.1116,-0.1101,-0.1017,-0.0911,-0.0665,-0.0524,-0.0182,0.0262,0.0729,0.0887,0.1207,0.1142,0.1285,0.1322,0.132,0.1399,0.0969,0.1158,0.1157,0.1157,0.1156,0.1156,0,-0.0978,-0.103,-0.1097,-0.1155,-0.1188,-0.1181,-0.1135,-0.1047,-0.0882,-0.0591,-0.0344,0.0215,0.0644,0.103,0.1455,0.1614,0.1639,0.1681,0.1709,0.1758,0.1412,0.1407,0.1637,0.1637,0.1637,0.1637,0.1636,0.1636,-0.1006,-0.1086,-0.1123,-0.1197,-0.1229,-0.122,-0.1179,-0.0988,-0.0755,-0.026,0.014,0.044,0.0933,0.1566,0.1964,0.1987,0.2126,0.209,0.2175,0.1937,0.1902,0.1869,0.1878,0.2202,0.2203,0.2516,0.2519,0.2521]}],[{"header":{"parameterUnit":"m.s-1","parameterCategory":2,"la1":30.2991,"la2":30.254,"lo1":-89.0895,"lo2":-89.0444,"dy":0.0017,"dx":0.0017,"nx":28,"ny":28,"refTime":"2024-04-02T09:00:00:Z","depth":"2","parameterNumber":2,"parameterNumberName":"U-component_of_CURRENTS"},"data":[0,0,0,0,0,0,0,0,0,0,0,0,0,0,0,0,0,0,0,0,0,0,0,0,0,0,0,0,0,0,0,0,0,0,0,0,0,0,0,0,0,0,0,0,0,0,0,0,0,0,0,0,0,0,0,0,0,0,-0.2432,-0.2433,0,-0.2459,-0.2459,-0.2459,-0.2435,-0.2434,-0.2434,-0.2433,-0.2401,-0.2401,-0.2401,0,0,0,0,0,0,0,0,0,0,0,0,0,-0.2363,-0.2365,-0.2432,-0.2433,-0.2433,-0.2459,-0.2459,-0.2459,-0.2435,-0.2434,-0.2433,-0.2433,-0.2402,-0.2401,-0.2401,0,0,0,0,0,0,0,0,0,0,0,0,0,-0.239,-0.2365,-0.2432,-0.2426,-0.2426,-0.2459,-0.2459,-0.2459,-0.2435,-0.2434,-0.2433,-0.2432,-0.2402,-0.2401,-0.2401,-0.2422,0,0,-0.24,-0.24,0,0,0,0,0,0,0,0,-0.2388,-0.2392,-0.2427,-0.2427,-0.2427,-0.2445,-0.2423,-0.2445,-0.2436,-0.2429,-0.2433,-0.2432,-0.2413,-0.2412,-0.2417,-0.2421,-0.2419,-0.24,-0.24,-0.24,-0.24,0,0,0,0,0,0,0,-0.2386,-0.2391,-0.244,-0.2427,-0.2427,-0.2424,-0.2426,-0.2427,-0.2424,-0.243,-0.2429,-0.2436,-0.2412,-0.2417,-0.2415,-0.2419,-0.24,-0.24,-0.24,-0.24,-0.2429,-0.243,0,0,0,0,0,0,-0.239,-0.2389,-0.2439,-0.2441,-0.2407,-0.2426,-0.2428,-0.2438,-0.2425,-0.2423,-0.2437,-0.2435,-0.2418,-0.2416,-0.2414,-0.2438,-0.24,-0.24,-0.24,-0.2429,-0.243,-0.2431,0,0,0,0,0,0,-0.2388,-0.2394,-0.2438,-0.2417,-0.2423,-0.2429,-0.244,-0.2439,-0.2443,-0.2432,-0.2428,-0.2442,-0.2417,-0.2415,-0.2416,-0.2436,-0.24,-0.24,-0.2427,-0.2429,-0.243,-0.2485,0,0,0,0,0,0,-0.2386,-0.2393,-0.24,-0.2418,-0.2424,-0.2459,-0.2441,-0.2441,-0.2451,-0.2448,-0.2435,-0.2431,-0.2416,-0.2417,-0.2416,-0.2435,-0.24,-0.2426,-0.2428,-0.243,-0.2482,-0.2488,-0.2493,0,0,0,0,0,-0.2383,-0.2397,-0.24,-0.2406,-0.2434,-0.246,-0.2463,-0.2461,-0.2452,-0.2459,-0.2449,-0.2431,-0.2427,-0.2418,-0.2417,-0.2436,-0.2425,-0.2428,-0.243,-0.248,-0.2487,-0.2493,0,0,0,0,0,0,-0.2366,-0.2397,-0.24,-0.242,-0.2441,-0.2457,-0.2464,-0.2468,-0.2467,-0.2461,-0.2444,-0.244,-0.2449,-0.2436,-0.2426,-0.2449,-0.2424,-0.2426,-0.2462,-0.2469,-0.2474,-0.2464,-0.2399,0,0,0,0,0,-0.2368,-0.2384,-0.2414,-0.2428,-0.2441,-0.2455,-0.2465,-0.2469,-0.2474,-0.2473,-0.2465,-0.2458,-0.246,-0.2458,-0.2455,-0.2469,-0.2438,-0.2481,-0.2486,-0.2491,-0.2483,-0.2459,-0.2462,-0.2437,-0.2437,-0.2437,0,0,-0.2363,-0.2383,-0.2391,-0.2425,-0.2438,-0.2466,-0.2457,-0.2478,-0.2496,-0.247,-0.2484,-0.2478,-0.2468,-0.2482,-0.2485,-0.2472,-0.2483,-0.2494,-0.2498,-0.2487,-0.2462,-0.2464,-0.2466,-0.2439,-0.2438,-0.2438,0,0,-0.2366,-0.2383,-0.24,-0.2425,-0.2457,-0.2472,-0.2481,-0.2505,-0.251,-0.253,-0.2515,-0.2517,-0.2523,-0.2518,-0.2517,-0.2552,-0.2514,-0.2557,-0.2577,-0.2556,-0.2557,-0.2558,-0.2524,-0.2521,-0.256,-0.256,-0.256,0,-0.2358,-0.2386,-0.2408,-0.2438,-0.2459,-0.2477,-0.2505,-0.2521,-0.2541,-0.2547,-0.2538,-0.2545,-0.2538,-0.2551,-0.2564,-0.2564,-0.2539,-0.2554,-0.2562,-0.2562,-0.2562,-0.2527,-0.2523,-0.2563,-0.2562,-0.2562,-0.2562,0,-0.2376,-0.2404,-0.2418,-0.2462,-0.249,-0.2515,-0.255,-0.2569,-0.2578,-0.2589,-0.2603,-0.2594,-0.2593,-0.2602,-0.2595,-0.2601,-0.2579,-0.2572,-0.2543,-0.2568,-0.2529,-0.2524,-0.2567,-0.2566,-0.2565,-0.2564,0,0,-0.2337,-0.2415,-0.2418,-0.2445,-0.2506,-0.2527,-0.2569,-0.2604,-0.2619,-0.2635,-0.2646,-0.2657,-0.2646,-0.2643,-0.2636,-0.2621,-0.2607,-0.26,-0.2598,-0.2563,-0.2547,-0.2454,-0.2439,-0.2602,-0.2601,-0.2601,-0.2521,0,-0.2339,-0.2397,-0.2437,-0.2485,-0.252,-0.2561,-0.2597,-0.2633,-0.2652,-0.2667,-0.2665,-0.2672,-0.2665,-0.2663,-0.2651,-0.2622,-0.2596,-0.2628,-0.2531,-0.2527,-0.2438,-0.2431,-0.2273,-0.2182,-0.2516,-0.2515,-0.2514,0,-0.2338,-0.2379,-0.2431,-0.2504,-0.252,-0.2552,-0.2603,-0.2637,-0.2673,-0.2687,-0.2695,-0.2693,-0.2689,-0.2671,-0.2622,-0.2643,-0.2594,-0.2563,-0.256,-0.2445,-0.2424,-0.2211,-0.216,-0.2506,-0.2506,-0.2507,-0.2508,0,-0.2292,-0.237,-0.2408,-0.2435,-0.252,-0.2543,-0.2581,-0.2633,-0.2654,-0.2689,-0.2697,-0.2701,-0.2685,-0.2647,-0.2589,-0.2607,-0.2511,-0.2528,-0.2392,-0.2385,-0.2214,-0.2193,-0.2468,-0.2468,-0.2468,-0.2468,-0.2469,0,-0.2277,-0.2302,-0.2388,-0.2406,-0.2439,-0.2515,-0.2545,-0.2584,-0.2634,-0.2648,-0.269,-0.2679,-0.2676,-0.2627,-0.2582,-0.2459,-0.2501,-0.2378,-0.2352,-0.2229,-0.2211,-0.2466,-0.2467,-0.2465,-0.2466,-0.2467,-0.2467,0,-0.2213,-0.2276,-0.2314,-0.2398,-0.2418,-0.2435,-0.2509,-0.2534,-0.2592,-0.2608,-0.2618,-0.2648,-0.2586,-0.2553,-0.2478,-0.2424,-0.2337,-0.2275,-0.2125,-0.2082,-0.2231,-0.2236,-0.2131,-0.2127,-0.2123,-0.212,-0.2118,0,-0.2183,-0.2199,-0.2274,-0.2291,-0.2322,-0.2367,-0.2401,-0.2488,-0.2519,-0.2571,-0.2568,-0.2535,-0.2476,-0.2337,-0.2235,-0.2117,-0.2203,-0.1916,-0.1922,-0.2208,-0.2194,-0.2204,-0.2214,-0.1722,-0.1716,-0.1712,-0.1708,0,-0.2102,-0.2129,-0.2155,-0.2194,-0.2229,-0.2261,-0.2318,-0.233,-0.2427,-0.2431,-0.2405,-0.2359,-0.2254,-0.2053,-0.1921,-0.1843,-0.1933,-0.182,-0.2136,-0.1837,-0.1817,-0.1806,-0.1829,-0.1668,-0.1672,-0.1675,-0.1677,-0.1679,-0.2015,-0.2012,-0.2048,-0.2064,-0.2107,-0.2112,-0.2084,-0.2156,-0.2143,-0.2109,-0.2168,-0.2026,-0.2007,-0.1691,-0.1587,-0.1504,-0.1639,-0.1581,-0.1597,-0.1617,-0.1589,-0.1564,-0.1363,-0.1365,-0.1367,-0.1368,-0.137,0,-0.1892,-0.1901,-0.1918,-0.1924,-0.1902,-0.1973,-0.1992,-0.1927,-0.1854,-0.1857,-0.1788,-0.1529,-0.1401,-0.1378,-0.1185,-0.1155,-0.1169,-0.1115,-0.1144,-0.1183,-0.1218,-0.1173,-0.0834,-0.0833,-0.0831,-0.083,0,0,-0.1826,-0.1787,-0.1792,-0.1696,-0.1703,-0.161,-0.1577,-0.1503,-0.1462,-0.1306,-0.1222,-0.1295,-0.1321,-0.1065,-0.1019,-0.0895,-0.103,-0.0848,-0.1276,-0.1347,-0.1381,-0.148,-0.1453,0,0,0,0,0]},{"header":{"parameterUnit":"m.s-1","parameterCategory":2,"la1":30.2991,"la2":30.254,"lo1":-89.0895,"lo2":-89.0444,"dy":0.0017,"dx":0.0017,"nx":28,"ny":28,"refTime":"2024-04-02T09:00:00:Z","depth":"2","parameterNumber":3,"parameterNumberName":"V-component_of_CURRENTS"},"data":[0,0,0,0,0,0,0,0,0,0,0,0,0,0,0,0,0,0,0,0,0,0,0,0,0,0,0,0,0,0,0,0,0,0,0,0,0,0,0,0,0,0,0,0,0,0,0,0,0,0,0,0,0,0,0,0,0,0,-0.0324,-0.0323,0,-0.0247,-0.0246,-0.0245,-0.0188,-0.0187,-0.0187,-0.0187,-0.0069,-0.0066,-0.0064,0,0,0,0,0,0,0,0,0,0,0,0,0,-0.0374,-0.0374,-0.0324,-0.0323,-0.0322,-0.0247,-0.0246,-0.0245,-0.0188,-0.0187,-0.0187,-0.0186,-0.007,-0.0067,-0.0064,0,0,0,0,0,0,0,0,0,0,0,0,0,-0.033,-0.0374,-0.0324,-0.0285,-0.0281,-0.0247,-0.0246,-0.0244,-0.0188,-0.0187,-0.0187,-0.0186,-0.0071,-0.0067,-0.0063,-0.0051,0,0,-0.0051,-0.0049,0,0,0,0,0,0,0,0,-0.0332,-0.0328,-0.0292,-0.0288,-0.0283,-0.0227,-0.022,-0.0178,-0.0188,-0.0223,-0.0187,-0.0186,-0.0119,-0.0111,-0.0097,-0.0045,-0.004,-0.005,-0.0048,-0.0046,-0.0045,0,0,0,0,0,0,0,-0.0336,-0.0331,-0.0293,-0.0291,-0.0286,-0.0255,-0.0249,-0.0212,-0.0174,-0.022,-0.0215,-0.0208,-0.0116,-0.0102,-0.0094,-0.0038,-0.005,-0.0047,-0.0044,-0.0043,0.0047,0.0047,0,0,0,0,0,0,-0.035,-0.0334,-0.0295,-0.029,-0.0308,-0.0255,-0.0248,-0.0245,-0.0175,-0.0164,-0.0209,-0.0206,-0.0109,-0.0099,-0.009,-0.0057,-0.0046,-0.0042,-0.004,0.0047,0.0047,0.0047,0,0,0,0,0,0,-0.0351,-0.0347,-0.0298,-0.0311,-0.0302,-0.0256,-0.0253,-0.0244,-0.0227,-0.0168,-0.0156,-0.0201,-0.0108,-0.0096,-0.0053,-0.0052,-0.004,-0.0037,0.0047,0.0047,0.0047,-0.0,0,0,0,0,0,0,-0.0353,-0.0349,-0.0353,-0.0312,-0.0302,-0.0284,-0.0253,-0.0243,-0.0224,-0.022,-0.0157,-0.0146,-0.0107,-0.0059,-0.0049,-0.0047,-0.0033,0.0047,0.0047,0.0047,0.0002,-0.0002,-0.0005,0,0,0,0,0,-0.0355,-0.0367,-0.0354,-0.0349,-0.031,-0.0285,-0.0277,-0.0241,-0.0225,-0.0222,-0.0175,-0.0148,-0.0053,-0.0056,-0.0044,-0.004,0.0047,0.0047,0.0047,0.0003,-0.0001,-0.0005,0,0,0,0,0,0,-0.0392,-0.0361,-0.0346,-0.0348,-0.0321,-0.0275,-0.0271,-0.0246,-0.0208,-0.0202,-0.0144,-0.013,-0.0094,-0.0062,-0.0067,-0.0016,-0.0,0.0002,-0.0038,-0.0041,-0.0044,-0.0058,-0.003,0,0,0,0,0,-0.0403,-0.0403,-0.0366,-0.0369,-0.0358,-0.0316,-0.0302,-0.0278,-0.0239,-0.0221,-0.0176,-0.0129,-0.0086,-0.0061,-0.0022,0.0008,0.0049,0.0017,0.0014,0.0011,0.0007,0.0074,0.0077,0.0046,0.0046,0.0046,0,0,-0.0418,-0.0402,-0.0401,-0.0376,-0.0353,-0.0345,-0.0306,-0.0291,-0.0278,-0.0215,-0.0185,-0.0139,-0.0081,-0.0046,-0.0028,-0.0018,0.004,0.0011,0.0008,0.0006,0.0074,0.0077,0.008,0.0046,0.0046,0.0046,0,0,-0.0452,-0.0434,-0.0446,-0.0427,-0.0399,-0.0371,-0.037,-0.0327,-0.0301,-0.0269,-0.0218,-0.017,-0.0113,-0.0064,-0.0033,-0.0031,0.0019,-0.0024,-0.0045,0.0019,0.0022,0.0026,0.0077,0.0085,-0.0023,-0.0023,-0.0023,0,-0.0472,-0.0482,-0.0445,-0.045,-0.0439,-0.0387,-0.0394,-0.036,-0.0308,-0.0283,-0.0269,-0.0165,-0.012,-0.0058,-0.0059,-0.0037,0.0002,-0.0036,0.0016,0.002,0.0024,0.0076,0.0085,-0.0025,-0.0025,-0.0025,-0.0024,0,-0.051,-0.0518,-0.0523,-0.0511,-0.0491,-0.0491,-0.044,-0.0416,-0.038,-0.0339,-0.0276,-0.0205,-0.0142,-0.0121,-0.009,-0.0037,-0.0019,0.0002,0.0024,0.0024,0.0078,0.0089,-0.0028,-0.0028,-0.0027,-0.0026,0,0,-0.056,-0.0554,-0.0558,-0.0565,-0.0525,-0.0517,-0.0489,-0.0447,-0.0424,-0.0362,-0.0322,-0.0243,-0.0197,-0.0159,-0.0104,-0.0048,0.0012,-0.0019,-0.0015,0.0028,0.0148,0.0185,0.0201,0.0044,0.0045,0.0047,0.0172,0,-0.0605,-0.0639,-0.0613,-0.0634,-0.0644,-0.0585,-0.0561,-0.051,-0.0455,-0.0402,-0.031,-0.0254,-0.0212,-0.0179,-0.0116,-0.0014,0.004,-0.0024,0.0143,0.0148,0.018,0.0215,0.017,0.028,0.0183,0.0185,0.0186,0,-0.0653,-0.0669,-0.0705,-0.0697,-0.0694,-0.0689,-0.0638,-0.061,-0.0513,-0.0467,-0.0384,-0.0309,-0.0208,-0.0181,-0.0005,-0.0047,0.0037,0.0113,0.012,0.0179,0.0206,0.0266,0.0304,0.0205,0.0204,0.0202,0.0201,0,-0.0714,-0.0733,-0.0768,-0.0765,-0.0742,-0.0736,-0.0714,-0.0631,-0.0599,-0.0503,-0.0465,-0.0332,-0.0255,-0.0131,0.0028,0.0013,0.022,0.0223,0.0337,0.034,0.0348,0.0349,0.0335,0.0335,0.0335,0.0335,0.0334,0,-0.0775,-0.0802,-0.0803,-0.0822,-0.0847,-0.0798,-0.0793,-0.0747,-0.0663,-0.0614,-0.0506,-0.0428,-0.0239,-0.0094,0.0029,0.023,0.0229,0.0344,0.0383,0.0329,0.0327,0.0295,0.0289,0.0339,0.0338,0.0337,0.0337,0,-0.0837,-0.084,-0.0881,-0.088,-0.0881,-0.0897,-0.0861,-0.0845,-0.0761,-0.069,-0.0661,-0.0479,-0.028,-0.0092,0.0136,0.0243,0.0416,0.0479,0.0398,0.0427,0.0487,0.0477,0.0619,0.0622,0.0624,0.0626,0.0627,0,-0.0873,-0.0901,-0.0936,-0.0966,-0.0972,-0.0982,-0.0981,-0.0907,-0.0872,-0.071,-0.0674,-0.0467,-0.029,0.0055,0.0272,0.051,0.0494,0.059,0.0556,0.0496,0.052,0.0506,0.0494,0.0544,0.0544,0.0545,0.0545,0,-0.0937,-0.0948,-0.0985,-0.1048,-0.1073,-0.1091,-0.1074,-0.1054,-0.0938,-0.0841,-0.0658,-0.0499,-0.0159,0.0123,0.0416,0.0533,0.0549,0.0611,0.0596,0.0476,0.0435,0.0455,0.0443,0.0551,0.055,0.055,0.0549,0.0549,-0.0978,-0.1026,-0.1074,-0.1128,-0.1161,-0.1174,-0.1167,-0.1098,-0.1009,-0.0807,-0.0662,-0.038,-0.0133,0.0315,0.0498,0.0651,0.0649,0.067,0.0664,0.0659,0.0625,0.059,0.0728,0.0728,0.0729,0.0729,0.0729,0,-0.1028,-0.1079,-0.1146,-0.1206,-0.1243,-0.1237,-0.1205,-0.1141,-0.1004,-0.0782,-0.0563,-0.0262,0.0058,0.0307,0.0569,0.0723,0.068,0.0725,0.0637,0.0631,0.0626,0.0586,0.0682,0.0682,0.0683,0.0683,0,0,-0.1058,-0.1136,-0.1172,-0.125,-0.1286,-0.1289,-0.1258,-0.1118,-0.0944,-0.0697,-0.0467,-0.019,0.0106,0.0279,0.0452,0.0585,0.0561,0.058,0.0599,0.0467,0.046,0.0575,0.0506,0,0,0,0,0]}],[{"header":{"parameterUnit":"m.s-1","parameterCategory":2,"la1":30.2991,"la2":30.254,"lo1":-89.0895,"lo2":-89.0444,"dy":0.0017,"dx":0.0017,"nx":28,"ny":28,"refTime":"2024-04-02T09:00:00:Z","depth":"4","parameterNumber":2,"parameterNumberName":"U-component_of_CURRENTS"},"data":[0,0,0,0,0,0,0,0,0,0,0,0,0,0,0,0,0,0,0,0,0,0,0,0,0,0,0,0,0,0,0,0,0,0,0,0,0,0,0,0,0,0,0,0,0,0,0,0,0,0,0,0,0,0,0,0,0,0,-0.168,-0.1681,0,-0.1744,-0.1744,-0.1745,-0.1779,-0.1779,-0.1779,-0.1779,-0.1826,-0.1827,-0.1828,0,0,0,0,0,0,0,0,0,0,0,0,0,-0.1588,-0.159,-0.168,-0.1681,-0.1682,-0.1744,-0.1744,-0.1745,-0.1779,-0.1779,-0.1779,-0.1779,-0.1825,-0.1827,-0.1828,0,0,0,0,0,0,0,0,0,0,0,0,0,-0.1636,-0.159,-0.168,-0.1708,-0.1711,-0.1743,-0.1744,-0.1745,-0.1779,-0.1779,-0.1779,-0.1779,-0.1825,-0.1826,-0.1828,-0.1831,0,0,-0.1833,-0.1833,0,0,0,0,0,0,0,0,-0.1633,-0.1639,-0.1703,-0.1706,-0.171,-0.1755,-0.1729,-0.1774,-0.1778,-0.1751,-0.1779,-0.178,-0.1801,-0.1805,-0.1814,-0.1833,-0.1835,-0.1833,-0.1834,-0.1834,-0.1835,0,0,0,0,0,0,0,-0.163,-0.1636,-0.1704,-0.1704,-0.1708,-0.1717,-0.1724,-0.1737,-0.1772,-0.1753,-0.1756,-0.1766,-0.1803,-0.1812,-0.1815,-0.1836,-0.1833,-0.1834,-0.1835,-0.1836,-0.192,-0.1921,0,0,0,0,0,0,-0.1625,-0.1633,-0.1702,-0.1706,-0.1673,-0.1718,-0.1726,-0.1739,-0.1772,-0.1778,-0.1766,-0.1767,-0.1809,-0.1813,-0.1817,-0.1888,-0.1834,-0.1836,-0.1837,-0.1919,-0.192,-0.1922,0,0,0,0,0,0,-0.1623,-0.1631,-0.1699,-0.1672,-0.1682,-0.172,-0.1734,-0.174,-0.1778,-0.1782,-0.1788,-0.1801,-0.181,-0.1815,-0.1854,-0.1887,-0.1837,-0.1838,-0.1917,-0.1919,-0.1921,-0.1987,0,0,0,0,0,0,-0.162,-0.163,-0.1652,-0.1672,-0.1683,-0.1737,-0.1734,-0.1741,-0.1783,-0.1786,-0.1814,-0.1817,-0.1811,-0.1852,-0.1856,-0.1888,-0.1839,-0.1915,-0.1918,-0.192,-0.1983,-0.1991,-0.1998,0,0,0,0,0,-0.1617,-0.164,-0.1653,-0.1662,-0.1708,-0.1738,-0.1746,-0.1772,-0.1784,-0.1807,-0.1826,-0.1818,-0.187,-0.1855,-0.1858,-0.1893,-0.1914,-0.1917,-0.192,-0.198,-0.199,-0.1998,0,0,0,0,0,0,-0.1613,-0.1647,-0.1661,-0.1695,-0.1724,-0.1745,-0.1773,-0.179,-0.1825,-0.1836,-0.1837,-0.1841,-0.1887,-0.1881,-0.1864,-0.1923,-0.189,-0.1894,-0.1934,-0.1943,-0.195,-0.1938,-0.184,0,0,0,0,0,-0.1622,-0.165,-0.168,-0.171,-0.1728,-0.1758,-0.178,-0.1799,-0.1825,-0.1842,-0.1862,-0.188,-0.1897,-0.1914,-0.1926,-0.1963,-0.1933,-0.1986,-0.1993,-0.2,-0.1992,-0.1979,-0.1983,-0.1931,-0.1931,-0.1931,0,0,-0.1629,-0.1652,-0.167,-0.1712,-0.1738,-0.1771,-0.1773,-0.1816,-0.1849,-0.1841,-0.1899,-0.191,-0.1913,-0.1951,-0.1971,-0.1955,-0.2001,-0.2003,-0.2009,-0.1998,-0.1982,-0.1987,-0.1991,-0.1933,-0.1933,-0.1933,0,0,-0.1646,-0.168,-0.1707,-0.1737,-0.1784,-0.1802,-0.1822,-0.1863,-0.1891,-0.1941,-0.1942,-0.1971,-0.2008,-0.2012,-0.2017,-0.2072,-0.2039,-0.2085,-0.2116,-0.2103,-0.2107,-0.211,-0.2082,-0.2082,-0.209,-0.209,-0.209,0,-0.1657,-0.1692,-0.1721,-0.1754,-0.1785,-0.182,-0.1856,-0.1888,-0.1939,-0.1961,-0.197,-0.202,-0.2031,-0.2061,-0.2083,-0.2088,-0.2069,-0.2084,-0.2112,-0.2114,-0.2116,-0.2086,-0.2085,-0.2094,-0.2093,-0.2093,-0.2092,0,-0.1682,-0.1726,-0.1747,-0.18,-0.1837,-0.1877,-0.192,-0.1964,-0.2003,-0.2027,-0.2079,-0.209,-0.2114,-0.213,-0.2127,-0.2153,-0.2131,-0.2121,-0.2087,-0.2125,-0.2091,-0.2089,-0.2099,-0.2097,-0.2096,-0.2095,0,0,-0.1659,-0.1748,-0.1758,-0.1793,-0.1867,-0.1893,-0.1959,-0.2012,-0.2048,-0.2099,-0.2136,-0.2176,-0.2182,-0.2187,-0.2189,-0.2185,-0.219,-0.2166,-0.2164,-0.2133,-0.2152,-0.201,-0.1994,-0.2188,-0.2188,-0.2188,-0.2125,0,-0.1671,-0.1737,-0.1782,-0.1851,-0.1888,-0.1947,-0.2,-0.2056,-0.2101,-0.2145,-0.2166,-0.2202,-0.2204,-0.222,-0.222,-0.22,-0.2186,-0.2207,-0.2124,-0.2121,-0.1986,-0.1987,-0.2188,-0.2122,-0.2122,-0.2121,-0.2121,0,-0.1672,-0.1719,-0.1788,-0.1877,-0.1899,-0.195,-0.203,-0.2079,-0.2146,-0.2181,-0.2218,-0.2234,-0.2255,-0.2243,-0.2219,-0.2234,-0.2197,-0.2172,-0.2169,-0.2006,-0.1973,-0.2076,-0.2116,-0.2116,-0.2117,-0.2117,-0.2117,0,-0.162,-0.1719,-0.1775,-0.1807,-0.1912,-0.1959,-0.2015,-0.2093,-0.2128,-0.22,-0.2222,-0.2255,-0.2261,-0.2239,-0.22,-0.2215,-0.2144,-0.2156,-0.1987,-0.1977,-0.2096,-0.2094,-0.2117,-0.2117,-0.2117,-0.2117,-0.2117,0,-0.1597,-0.1644,-0.1762,-0.179,-0.1852,-0.194,-0.2004,-0.2061,-0.2136,-0.2159,-0.2231,-0.2228,-0.226,-0.2229,-0.2196,-0.2068,-0.2139,-0.1975,-0.1945,-0.2127,-0.2128,-0.2094,-0.2092,-0.2115,-0.2115,-0.2116,-0.2116,0,-0.1523,-0.1607,-0.1672,-0.1792,-0.183,-0.1872,-0.1984,-0.2019,-0.2105,-0.2133,-0.2155,-0.2205,-0.2158,-0.2153,-0.21,-0.2033,-0.1948,-0.1882,-0.2062,-0.2046,-0.1794,-0.1797,-0.1693,-0.1688,-0.1683,-0.1679,-0.1675,0,-0.1487,-0.1517,-0.1646,-0.1682,-0.1742,-0.1823,-0.1872,-0.1984,-0.2014,-0.2088,-0.2078,-0.2076,-0.2085,-0.1883,-0.1911,-0.1818,-0.1794,-0.1751,-0.1786,-0.1766,-0.1748,-0.1759,-0.1768,-0.1668,-0.1667,-0.1665,-0.1664,0,-0.1403,-0.1465,-0.1513,-0.1587,-0.1653,-0.1705,-0.1785,-0.1787,-0.1894,-0.2001,-0.193,-0.1885,-0.1817,-0.1767,-0.1695,-0.164,-0.1788,-0.1701,-0.1711,-0.1744,-0.1734,-0.1724,-0.1738,-0.1647,-0.165,-0.1651,-0.1652,0,-0.1331,-0.1343,-0.1414,-0.1458,-0.1536,-0.1544,-0.161,-0.1632,-0.1666,-0.1768,-0.1736,-0.1732,-0.1787,-0.167,-0.161,-0.1537,-0.1523,-0.1487,-0.1508,-0.1527,-0.1502,-0.1468,-0.1253,0,0,0,0,0,-0.1246,-0.124,-0.1278,-0.1313,-0.1385,-0.1418,-0.1526,-0.1597,-0.171,-0.1611,-0.1667,-0.1597,-0.1501,-0.1507,-0.1391,-0.1534,-0.153,-0.1396,-0.1502,-0.1555,-0.1574,-0.156,0,0,0,0,0,0,-0.1187,-0.1215,-0.1223,-0.1171,-0.1167,-0.1218,-0.1273,-0.1359,-0.132,-0.1442,-0.1389,-0.1492,-0.1414,-0.1515,-0.1348,-0.1351,-0.1385,-0.1418,-0.1414,-0.1544,-0.1561,-0.1577,-0.1569,0,0,0,0,0]},{"header":{"parameterUnit":"m.s-1","parameterCategory":2,"la1":30.2991,"la2":30.254,"lo1":-89.0895,"lo2":-89.0444,"dy":0.0017,"dx":0.0017,"nx":28,"ny":28,"refTime":"2024-04-02T09:00:00:Z","depth":"4","parameterNumber":3,"parameterNumberName":"V-component_of_CURRENTS"},"data":[0,0,0,0,0,0,0,0,0,0,0,0,0,0,0,0,0,0,0,0,0,0,0,0,0,0,0,0,0,0,0,0,0,0,0,0,0,0,0,0,0,0,0,0,0,0,0,0,0,0,0,0,0,0,0,0,0,0,-0.0295,-0.0294,0,-0.0245,-0.0244,-0.0244,-0.0212,-0.0212,-0.0212,-0.0212,-0.013,-0.0128,-0.0126,0,0,0,0,0,0,0,0,0,0,0,0,0,-0.0324,-0.0324,-0.0295,-0.0294,-0.0294,-0.0245,-0.0244,-0.0243,-0.0212,-0.0212,-0.0212,-0.0212,-0.013,-0.0128,-0.0125,0,0,0,0,0,0,0,0,0,0,0,0,0,-0.0296,-0.0324,-0.0295,-0.0273,-0.027,-0.0245,-0.0244,-0.0243,-0.0212,-0.0212,-0.0212,-0.0212,-0.0131,-0.0128,-0.0125,-0.0109,0,0,-0.0116,-0.0114,0,0,0,0,0,0,0,0,-0.0298,-0.0295,-0.0276,-0.0274,-0.0271,-0.0235,-0.0225,-0.0197,-0.0212,-0.0233,-0.0212,-0.0212,-0.0163,-0.0157,-0.0147,-0.0105,-0.0102,-0.0115,-0.0113,-0.0112,-0.0111,0,0,0,0,0,0,0,-0.03,-0.0297,-0.0274,-0.0276,-0.0273,-0.0252,-0.0248,-0.0219,-0.0198,-0.0231,-0.0229,-0.0225,-0.0161,-0.015,-0.0145,-0.01,-0.0115,-0.0113,-0.0111,-0.0109,-0.0036,-0.0036,0,0,0,0,0,0,-0.031,-0.0299,-0.0276,-0.0273,-0.0285,-0.0252,-0.0248,-0.0246,-0.0199,-0.0192,-0.0225,-0.0224,-0.0156,-0.0149,-0.0142,-0.0116,-0.0112,-0.0109,-0.0107,-0.0036,-0.0036,-0.0036,0,0,0,0,0,0,-0.0311,-0.0308,-0.0278,-0.0285,-0.028,-0.0252,-0.0251,-0.0245,-0.0238,-0.0195,-0.0187,-0.0223,-0.0155,-0.0146,-0.0114,-0.0113,-0.0108,-0.0105,-0.0036,-0.0036,-0.0036,-0.0068,0,0,0,0,0,0,-0.0312,-0.0309,-0.0315,-0.0286,-0.028,-0.0269,-0.0251,-0.0245,-0.0235,-0.0233,-0.0191,-0.0183,-0.0155,-0.0119,-0.0111,-0.0109,-0.0102,-0.0036,-0.0036,-0.0036,-0.0067,-0.0069,-0.007,0,0,0,0,0,-0.0313,-0.0321,-0.0315,-0.0313,-0.0288,-0.0269,-0.0264,-0.0243,-0.0236,-0.0235,-0.0202,-0.0184,-0.0113,-0.0116,-0.0107,-0.0104,-0.0036,-0.0036,-0.0036,-0.0066,-0.0068,-0.007,0,0,0,0,0,0,-0.0337,-0.0318,-0.0311,-0.0313,-0.0296,-0.0264,-0.0264,-0.0248,-0.0222,-0.022,-0.0179,-0.0169,-0.0141,-0.0119,-0.0124,-0.0083,-0.0073,-0.0071,-0.0099,-0.0101,-0.0103,-0.0118,-0.01,0,0,0,0,0,-0.0346,-0.0349,-0.0324,-0.0327,-0.0321,-0.0294,-0.0285,-0.0271,-0.0243,-0.0232,-0.0201,-0.0167,-0.0133,-0.0115,-0.0085,-0.0061,-0.0032,-0.0054,-0.0055,-0.0057,-0.0064,-0.001,-0.0007,-0.0035,-0.0035,-0.0035,0,0,-0.0357,-0.0348,-0.0349,-0.0333,-0.0319,-0.0313,-0.0288,-0.028,-0.0272,-0.0227,-0.0208,-0.0173,-0.0129,-0.01,-0.0086,-0.0081,-0.0035,-0.0057,-0.0059,-0.0064,-0.0009,-0.0007,-0.0004,-0.0035,-0.0035,-0.0035,0,0,-0.038,-0.0372,-0.0381,-0.0369,-0.0353,-0.0334,-0.0334,-0.0305,-0.0289,-0.0266,-0.0229,-0.0192,-0.015,-0.0111,-0.0087,-0.0081,-0.0048,-0.0076,-0.0094,-0.0042,-0.0039,-0.0036,-0.0001,0.0005,-0.0075,-0.0075,-0.0075,0,-0.0396,-0.0405,-0.0381,-0.0385,-0.038,-0.0346,-0.0353,-0.0329,-0.0293,-0.0278,-0.0268,-0.0189,-0.0153,-0.0104,-0.0104,-0.0084,-0.0057,-0.0089,-0.0044,-0.0041,-0.0037,-0.0002,0.0005,-0.0077,-0.0077,-0.0076,-0.0076,0,-0.042,-0.0431,-0.0435,-0.043,-0.0418,-0.042,-0.0385,-0.0371,-0.0349,-0.032,-0.0274,-0.0216,-0.017,-0.015,-0.0126,-0.0083,-0.0073,-0.0053,-0.004,-0.0036,0.0,0.0009,-0.0079,-0.0078,-0.0078,-0.0078,0,0,-0.0452,-0.0455,-0.0459,-0.047,-0.0445,-0.0442,-0.0423,-0.0397,-0.0387,-0.0339,-0.0314,-0.0247,-0.0213,-0.0184,-0.0138,-0.0093,-0.0045,-0.0071,-0.0067,-0.004,0.0058,0.0051,0.006,-0.0017,-0.0015,-0.0014,0.0072,0,-0.0483,-0.0513,-0.0498,-0.0522,-0.0532,-0.0496,-0.0482,-0.0449,-0.0413,-0.0378,-0.0304,-0.0264,-0.0224,-0.0201,-0.0147,-0.0067,-0.0025,-0.0071,0.0053,0.0056,0.0048,0.0069,-0.001,0.0078,0.008,0.0082,0.0083,0,-0.0513,-0.0531,-0.0566,-0.0575,-0.0575,-0.0579,-0.0555,-0.0538,-0.0471,-0.0439,-0.0376,-0.0317,-0.0234,-0.0208,-0.0067,-0.0099,-0.0032,0.0029,0.0034,0.0043,0.0065,0.0077,0.0098,0.0097,0.0095,0.0094,0.0094,0,-0.0553,-0.0579,-0.0615,-0.0617,-0.0614,-0.0621,-0.0614,-0.0561,-0.0544,-0.0477,-0.0452,-0.0344,-0.0287,-0.0182,-0.0053,-0.006,0.0097,0.0109,0.0166,0.0167,0.016,0.0156,0.0197,0.0197,0.0197,0.0197,0.0197,0,-0.0589,-0.062,-0.0644,-0.0663,-0.0701,-0.0672,-0.0688,-0.066,-0.0608,-0.058,-0.0491,-0.0435,-0.0278,-0.0164,-0.0059,0.0082,0.01,0.0165,0.0193,0.0143,0.0137,0.0166,0.0161,0.02,0.0199,0.0199,0.0198,0,-0.0622,-0.064,-0.0687,-0.0711,-0.0723,-0.0748,-0.075,-0.0748,-0.0695,-0.0653,-0.0631,-0.0492,-0.034,-0.0186,-0.0002,0.0074,0.0207,0.0248,0.0176,0.0198,0.0238,0.0231,0.0318,0.0319,0.0319,0.032,0.032,0,-0.0641,-0.0669,-0.0732,-0.0771,-0.079,-0.0823,-0.0837,-0.08,-0.0782,-0.0678,-0.0652,-0.0503,-0.0398,-0.0134,0.0012,0.0214,0.0237,0.0292,0.0269,0.0234,0.0253,0.0245,0.0237,0.0321,0.0321,0.0321,0.0321,0,-0.0672,-0.0702,-0.0744,-0.0823,-0.0867,-0.0904,-0.0915,-0.0902,-0.0833,-0.0792,-0.0641,-0.0492,-0.0321,-0.0123,0.0034,0.0175,0.0251,0.0297,0.0297,0.0276,0.0239,0.0255,0.0247,0.0323,0.0323,0.0322,0.0322,0,-0.0697,-0.074,-0.0801,-0.0864,-0.0927,-0.0953,-0.0958,-0.0907,-0.0869,-0.0734,-0.0684,-0.0486,-0.036,-0.0143,0.0003,0.0142,0.0168,0.0196,0.0202,0.0201,0.0138,0.0072,0.0133,0,0,0,0,0,-0.0712,-0.0761,-0.0832,-0.0901,-0.0961,-0.0985,-0.099,-0.0973,-0.0903,-0.0796,-0.0728,-0.0558,-0.0305,-0.0192,-0.0053,-0.0022,0.0161,0.0141,0.0188,0.0332,0.033,0.0275,0,0,0,0,0,0,-0.0725,-0.0798,-0.0832,-0.0908,-0.0954,-0.1004,-0.1004,-0.0961,-0.0882,-0.0792,-0.0649,-0.0546,-0.0302,-0.0381,-0.0054,-0.0013,0.003,0.0268,0.0271,0.0333,0.0331,0.033,0.0272,0,0,0,0,0]}]]